Regional Weather Roundup
Issued by NWS

Home | Current Version | Previous Version | Graphics & Text | Print | Product List | Glossary On
Versions: 1 2 3 4 5 6 7 8 9 10 11 12 13 14 15 16 17 18 19 20 21 22 23 24 25 26 27 28 29 30 31 32 33 34 35 36 37 38 39 40 41 42 43 44 45 46 47 48 49 50
000
ASUS43 KLOT 220900
RWRIL

ILLINOIS REGIONAL WEATHER ROUNDUP
NATIONAL WEATHER SERVICE CHICAGO/ROMEOVILLE IL
400 AM CDT FRI AUG 22 2014

NOTE: "FAIR" INDICATES FEW OR NO CLOUDS BELOW 12,000 FEET WITH NO
SIGNIFICANT WEATHER AND/OR OBSTRUCTIONS TO VISIBILITY.

* THESE STATIONS ARE NOT UNDER NWS QUALITY CONTROL. THEY ALSO MAY NOT
  REPORT WEATHER SUCH AS PRECIPITATION OR FOG.

ILZ001-002-007-009-015-016-024-221000-
NORTHWEST ILLINOIS

CITY           SKY/WX    TMP DP  RH WIND       PRES   REMARKS
MOLINE         CLOUDY    77  74  90 S7        29.87S
STERLING*      MOCLDY    72  70  94 E3        29.90R
$$

ILZ003-004-008-010-011-017-018-221000-
NORTH CENTRAL ILLINOIS

CITY           SKY/WX    TMP DP  RH WIND       PRES   REMARKS
ROCKFORD       CLOUDY    74  72  93 SE3       29.92R FOG
$$

ILZ005-006-012>014-019>023-221000-
NORTHEAST ILLINOIS

CITY           SKY/WX    TMP DP  RH WIND       PRES   REMARKS
CHICAGO-OHARE  LGT RAIN  73  69  87 SE5       29.90F
CHICAGO-MIDWAY RAIN      74  73  97 W7        29.91F FOG
AURORA         CLOUDY    74  71  91 S10       29.92R FOG
WAUKEGAN       FOG       71  70  96 CALM      29.90R VSB 1/2
DUPAGE AIRPORT CLOUDY    74  72  93 SE6       29.91S
WHEELING       CLOUDY    74  72  93 S5        29.91F
NORTHERLY ISL    N/A     73  70  90 S6          N/A
$$

LMZ740>746-221000-
SOUTHERN LAKE MICHIGAN

STATION/POSITION SKY/WX   TEMP    WIND        PRES    VSBY  WAVE
                          AIR SEA DIR/SP/G                  HT/PER
                          (F)     (DEG/KT/KT) (MB)    (MI)  (FT/S)
SOUTHERN BUOY              69 69  100/  6/  6 1012.3F         0
WAUKEGAN HARBOR            71      CALM  /  6   N/A
HARRISON CRIB              72     200/ 17/ 19   N/A
BURNHAM HARBOR             72     180/  5/ 15   N/A
CALUMET HARBOR             71     230/  2/  4 1012.0F
MICHIGAN CITY              72     180/  8/ 12   N/A
MICHIGAN CITY 6N           72 71  220/ 12/ 17   N/A           2/ 2
ST. JOSEPH                 72 71  200/  8/ 10   N/A           1
$$

ILZ025>027-034>036-040-047-049-050-058-095>099-221000-
WEST-CENTRAL ILLINOIS

CITY           SKY/WX    TMP DP  RH WIND       PRES   REMARKS
QUINCY         CLEAR     79  71  76 SW10      29.90S HX  82
MACOMB*        PTCLDY    77  73  87 SW9       29.90S
$$

ILZ028>032-037-038-041>044-048-051>054-059>061-221000-
CENTRAL ILLINOIS

CITY           SKY/WX    TMP DP  RH WIND       PRES   REMARKS
DECATUR        PTCLDY    78  74  87 SW10      29.92R HX  81
PEORIA         MOCLDY    80  75  84 N5        29.90R HX  85
SPRINGFIELD    CLEAR     80  73  79 SW7       29.91R HX  84
TAYLORVILLE    NOT AVBL
$$

ILZ033-039-045-046-055>057-062-063-221000-
EAST-CENTRAL ILLINOIS

CITY           SKY/WX    TMP DP  RH WIND       PRES   REMARKS
CHAMPAIGN      CLOUDY    76  74  93 SW7       29.92R
MATTOON        PTCLDY    76  73  91 SW9       29.93S
$$

ILZ079-100>102-221000-
SOUTHWEST ILLINOIS

CITY           SKY/WX    TMP DP  RH WIND       PRES   REMARKS
BELLEVILLE     CLEAR     77  73  87 VRB1      29.94S
CAHOKIA*       CLEAR     80  70  71 VRB5      29.94S HX  83
$$

ILZ064>066-069>071-074>076-080>082-084>086-088>090-092>094-221000-
SOUTH-CENTRAL ILLINOIS

CITY           SKY/WX    TMP DP  RH WIND       PRES   REMARKS
CARBONDALE     CLEAR     78  71  79 SW8       29.97S HX  80
MT. VERNON     CLEAR     75  70  83 SW6       29.97S
SALEM*         CLEAR     80  74  84 SW8       29.96S HX  84
$$

ILZ067-068-072-073-078-083-087-091-221000-
SOUTHEAST ILLINOIS

CITY           SKY/WX    TMP DP  RH WIND       PRES   REMARKS
LAWRENCEVILLE  CLEAR     77  73  87 SW6       29.95F
HARRISBURG*    CLEAR     77  74  92 SW5       29.99S
ROBINSON*      CLEAR     77  75  92 SW7       29.95S
$$

ABBREVIATIONS USED IN REMARKS
   TC - TEMPERATURE IN CELSIUS
  WCI - WIND CHILL INDEX
   HX - HEAT INDEX
  VSB - VISIBILITY
$$



USA.gov is the U.S. government's official web portal to all federal, state and local government web resources and services.